Year,Month,Day,Hour,Minute,Value (Times are PST for temperature in C)
2017,09,04,00,00,20.60
2017,09,04,00,01,20.50
2017,09,04,00,02,20.50
2017,09,04,00,03,20.40
2017,09,04,00,04,20.40
2017,09,04,00,05,20.40
2017,09,04,00,06,20.40
2017,09,04,00,07,20.40
2017,09,04,00,08,20.40
2017,09,04,00,09,20.40
2017,09,04,00,10,20.40
2017,09,04,00,11,20.40
2017,09,04,00,12,20.40
2017,09,04,00,13,20.40
2017,09,04,00,14,20.40
2017,09,04,00,15,20.30
2017,09,04,00,16,20.30
2017,09,04,00,17,20.30
2017,09,04,00,18,20.30
2017,09,04,00,19,20.30
2017,09,04,00,20,20.30
2017,09,04,00,21,20.30
2017,09,04,00,22,20.40
2017,09,04,00,23,20.40
2017,09,04,00,24,20.50
2017,09,04,00,25,20.60
2017,09,04,00,26,20.60
2017,09,04,00,27,20.60
2017,09,04,00,28,20.70
2017,09,04,00,29,20.70
2017,09,04,00,30,20.80
2017,09,04,00,31,20.80
2017,09,04,00,32,20.80
2017,09,04,00,33,20.90
2017,09,04,00,34,20.90
2017,09,04,00,35,20.90
2017,09,04,00,36,20.90
2017,09,04,00,37,21.00
2017,09,04,00,38,21.00
2017,09,04,00,39,21.00
2017,09,04,00,40,21.00
2017,09,04,00,41,20.90
2017,09,04,00,42,20.90
2017,09,04,00,43,20.90
2017,09,04,00,44,20.90
2017,09,04,00,45,20.90
2017,09,04,00,46,20.90
2017,09,04,00,47,20.90
2017,09,04,00,48,20.90
2017,09,04,00,49,20.90
2017,09,04,00,50,21.00
2017,09,04,00,51,21.10
2017,09,04,00,52,21.10
2017,09,04,00,53,21.10
2017,09,04,00,54,21.10
2017,09,04,00,55,21.10
2017,09,04,00,56,21.10
2017,09,04,00,57,21.10
2017,09,04,00,58,21.10
2017,09,04,00,59,21.10
2017,09,04,01,00,21.20
2017,09,04,01,01,21.20
2017,09,04,01,02,21.30
2017,09,04,01,03,21.30
2017,09,04,01,04,21.30
2017,09,04,01,05,21.40
2017,09,04,01,06,21.40
2017,09,04,01,07,21.40
2017,09,04,01,08,21.40
2017,09,04,01,09,21.40
2017,09,04,01,10,21.30
2017,09,04,01,11,21.30
2017,09,04,01,12,21.30
2017,09,04,01,13,21.20
2017,09,04,01,14,21.20
2017,09,04,01,15,21.20
2017,09,04,01,16,21.20
2017,09,04,01,17,21.20
2017,09,04,01,18,21.20
2017,09,04,01,19,21.20
2017,09,04,01,20,21.20
2017,09,04,01,21,21.30
2017,09,04,01,22,21.30
2017,09,04,01,23,21.30
2017,09,04,01,24,21.40
2017,09,04,01,25,21.40
2017,09,04,01,26,21.40
2017,09,04,01,27,21.50
2017,09,04,01,28,21.60
2017,09,04,01,29,21.60
2017,09,04,01,30,21.70
2017,09,04,01,31,21.70
2017,09,04,01,32,21.70
2017,09,04,01,33,21.80
2017,09,04,01,34,21.80
2017,09,04,01,35,21.80
2017,09,04,01,36,21.80
2017,09,04,01,37,21.80
2017,09,04,01,38,21.80
2017,09,04,01,39,21.80
2017,09,04,01,40,21.80
2017,09,04,01,41,21.80
2017,09,04,01,42,21.80
2017,09,04,01,43,21.80
2017,09,04,01,44,21.80
2017,09,04,01,45,21.80
2017,09,04,01,46,21.80
2017,09,04,01,47,21.80
2017,09,04,01,48,21.80
2017,09,04,01,49,21.80
2017,09,04,01,50,21.80
2017,09,04,01,51,21.80
2017,09,04,01,52,21.80
2017,09,04,01,53,21.80
2017,09,04,01,54,21.80
2017,09,04,01,55,21.80
2017,09,04,01,56,21.80
2017,09,04,01,57,21.80
2017,09,04,01,58,21.80
2017,09,04,01,59,21.80
2017,09,04,02,00,21.80
2017,09,04,02,01,21.80
2017,09,04,02,02,21.80
2017,09,04,02,03,21.80
2017,09,04,02,04,21.80
2017,09,04,02,05,21.90
2017,09,04,02,06,21.90
2017,09,04,02,07,21.90
2017,09,04,02,08,21.90
2017,09,04,02,09,21.90
2017,09,04,02,10,21.90
2017,09,04,02,11,21.90
2017,09,04,02,12,21.90
2017,09,04,02,13,21.90
2017,09,04,02,14,21.80
2017,09,04,02,15,21.80
2017,09,04,02,16,21.80
2017,09,04,02,17,21.80
2017,09,04,02,18,21.80
2017,09,04,02,19,21.80
2017,09,04,02,20,21.70
2017,09,04,02,21,21.70
2017,09,04,02,22,21.70
2017,09,04,02,23,21.60
2017,09,04,02,24,21.60
2017,09,04,02,25,21.60
2017,09,04,02,26,21.60
2017,09,04,02,27,21.50
2017,09,04,02,28,21.50
2017,09,04,02,29,21.40
2017,09,04,02,30,21.40
2017,09,04,02,31,21.30
2017,09,04,02,32,21.30
2017,09,04,02,33,21.30
2017,09,04,02,34,21.30
2017,09,04,02,35,21.20
2017,09,04,02,36,21.20
2017,09,04,02,37,21.20
2017,09,04,02,38,21.20
2017,09,04,02,39,21.10
2017,09,04,02,40,21.10
2017,09,04,02,41,21.10
2017,09,04,02,42,21.10
2017,09,04,02,43,21.00
2017,09,04,02,44,21.00
2017,09,04,02,45,21.00
2017,09,04,02,46,21.00
2017,09,04,02,47,20.90
2017,09,04,02,48,20.90
2017,09,04,02,49,20.90
2017,09,04,02,50,20.90
2017,09,04,02,51,20.90
2017,09,04,02,52,20.90
2017,09,04,02,53,20.90
2017,09,04,02,54,20.90
2017,09,04,02,55,20.90
2017,09,04,02,56,20.90
2017,09,04,02,57,20.80
2017,09,04,02,58,20.80
2017,09,04,02,59,20.80
2017,09,04,03,00,20.80
2017,09,04,03,01,20.80
2017,09,04,03,02,20.80
2017,09,04,03,03,20.80
2017,09,04,03,04,20.80
2017,09,04,03,05,20.80
2017,09,04,03,06,20.70
2017,09,04,03,07,20.70
2017,09,04,03,08,20.70
2017,09,04,03,09,20.70
2017,09,04,03,10,20.70
2017,09,04,03,11,20.70
2017,09,04,03,12,20.70
2017,09,04,03,13,20.70
2017,09,04,03,14,20.70
2017,09,04,03,15,20.70
2017,09,04,03,16,20.60
2017,09,04,03,17,20.60
2017,09,04,03,18,20.60
2017,09,04,03,19,20.60
2017,09,04,03,20,20.60
2017,09,04,03,21,20.60
2017,09,04,03,22,20.60
2017,09,04,03,23,20.60
2017,09,04,03,24,20.60
2017,09,04,03,25,20.60
2017,09,04,03,26,20.60
2017,09,04,03,27,20.60
2017,09,04,03,28,20.60
2017,09,04,03,29,20.60
2017,09,04,03,30,20.60
2017,09,04,03,31,20.60
2017,09,04,03,32,20.50
2017,09,04,03,33,20.50
2017,09,04,03,34,20.50
2017,09,04,03,35,20.50
2017,09,04,03,36,20.50
2017,09,04,03,37,20.50
2017,09,04,03,38,20.50
2017,09,04,03,39,20.40
2017,09,04,03,40,20.40
2017,09,04,03,41,20.50
2017,09,04,03,42,20.50
2017,09,04,03,43,20.50
2017,09,04,03,44,20.50
2017,09,04,03,45,20.50
2017,09,04,03,46,20.50
2017,09,04,03,47,20.50
2017,09,04,03,48,20.50
2017,09,04,03,49,20.50
2017,09,04,03,50,20.50
2017,09,04,03,51,20.50
2017,09,04,03,52,20.50
2017,09,04,03,53,20.50
2017,09,04,03,54,20.50
2017,09,04,03,55,20.50
2017,09,04,03,56,20.50
2017,09,04,03,57,20.50
2017,09,04,03,58,20.50
2017,09,04,03,59,20.50
2017,09,04,04,00,20.50
2017,09,04,04,01,20.50
2017,09,04,04,02,20.50
2017,09,04,04,03,20.50
2017,09,04,04,04,20.50
2017,09,04,04,05,20.50
2017,09,04,04,06,20.50
2017,09,04,04,07,20.40
2017,09,04,04,08,20.40
2017,09,04,04,09,20.40
2017,09,04,04,10,20.40
2017,09,04,04,11,20.40
2017,09,04,04,12,20.40
2017,09,04,04,13,20.40
2017,09,04,04,14,20.40
2017,09,04,04,15,20.40
2017,09,04,04,16,20.40
2017,09,04,04,17,20.40
2017,09,04,04,18,20.40
2017,09,04,04,19,20.40
2017,09,04,04,20,20.40
2017,09,04,04,21,20.40
2017,09,04,04,22,20.40
2017,09,04,04,23,20.40
2017,09,04,04,24,20.30
2017,09,04,04,25,20.30
2017,09,04,04,26,20.30
2017,09,04,04,27,20.30
2017,09,04,04,28,20.30
2017,09,04,04,29,20.30
2017,09,04,04,30,20.30
2017,09,04,04,31,20.30
2017,09,04,04,32,20.30
2017,09,04,04,33,20.30
2017,09,04,04,34,20.30
2017,09,04,04,35,20.20
2017,09,04,04,36,20.20
2017,09,04,04,37,20.20
2017,09,04,04,38,20.20
2017,09,04,04,39,20.20
2017,09,04,04,40,20.20
2017,09,04,04,41,20.10
2017,09,04,04,42,20.10
2017,09,04,04,43,20.10
2017,09,04,04,44,20.10
2017,09,04,04,45,20.10
2017,09,04,04,46,20.10
2017,09,04,04,47,20.10
2017,09,04,04,48,20.10
2017,09,04,04,49,20.00
2017,09,04,04,50,20.10
2017,09,04,04,51,20.10
2017,09,04,04,52,20.10
2017,09,04,04,53,20.10
2017,09,04,04,54,20.10
2017,09,04,04,55,20.10
2017,09,04,04,56,20.10
2017,09,04,04,57,20.10
2017,09,04,04,58,20.00
2017,09,04,04,59,20.00
2017,09,04,05,00,20.00
2017,09,04,05,01,20.00
2017,09,04,05,02,20.10
2017,09,04,05,03,20.10
2017,09,04,05,04,20.10
2017,09,04,05,05,20.10
2017,09,04,05,06,20.20
2017,09,04,05,07,20.20
2017,09,04,05,08,20.20
2017,09,04,05,09,20.20
2017,09,04,05,10,20.20
2017,09,04,05,11,20.20
2017,09,04,05,12,20.20
2017,09,04,05,13,20.20
2017,09,04,05,14,20.20
2017,09,04,05,15,20.30
2017,09,04,05,16,20.30
2017,09,04,05,17,20.30
2017,09,04,05,18,20.30
2017,09,04,05,19,20.20
2017,09,04,05,20,20.20
2017,09,04,05,21,20.20
2017,09,04,05,22,20.20
2017,09,04,05,23,20.20
2017,09,04,05,24,20.20
2017,09,04,05,25,20.20
2017,09,04,05,26,20.20
2017,09,04,05,27,20.20
2017,09,04,05,28,20.20
2017,09,04,05,29,20.20
2017,09,04,05,30,20.20
2017,09,04,05,31,20.20
2017,09,04,05,32,20.20
2017,09,04,05,33,20.10
2017,09,04,05,34,20.10
2017,09,04,05,35,20.10
2017,09,04,05,36,20.20
2017,09,04,05,37,20.10
2017,09,04,05,38,20.10
2017,09,04,05,39,20.10
2017,09,04,05,40,20.10
2017,09,04,05,41,20.10
2017,09,04,05,42,20.10
2017,09,04,05,43,20.10
2017,09,04,05,44,20.10
2017,09,04,05,45,20.10
2017,09,04,05,46,20.10
2017,09,04,05,47,20.10
2017,09,04,05,48,20.00
2017,09,04,05,49,20.00
2017,09,04,05,50,19.90
2017,09,04,05,51,19.90
2017,09,04,05,52,19.90
2017,09,04,05,53,19.90
2017,09,04,05,54,19.90
2017,09,04,05,55,19.90
2017,09,04,05,56,19.90
2017,09,04,05,57,19.80
2017,09,04,05,58,19.80
2017,09,04,05,59,19.80
2017,09,04,06,00,19.80
2017,09,04,06,01,19.80
2017,09,04,06,02,19.80
2017,09,04,06,03,19.80
2017,09,04,06,04,19.80
2017,09,04,06,05,19.80
2017,09,04,06,06,19.80
2017,09,04,06,07,19.80
2017,09,04,06,08,19.80
2017,09,04,06,09,19.80
2017,09,04,06,10,19.80
2017,09,04,06,11,19.80
2017,09,04,06,12,19.80
2017,09,04,06,13,19.80
2017,09,04,06,14,19.80
2017,09,04,06,15,19.80
2017,09,04,06,16,19.80
2017,09,04,06,17,19.80
2017,09,04,06,18,19.80
2017,09,04,06,19,19.80
2017,09,04,06,20,19.80
2017,09,04,06,21,19.80
2017,09,04,06,22,19.80
2017,09,04,06,23,19.80
2017,09,04,06,24,19.80
2017,09,04,06,25,19.80
2017,09,04,06,26,19.80
2017,09,04,06,27,19.80
2017,09,04,06,28,19.70
2017,09,04,06,29,19.70
2017,09,04,06,30,19.70
2017,09,04,06,31,19.70
2017,09,04,06,32,19.70
2017,09,04,06,33,19.70
2017,09,04,06,34,19.70
2017,09,04,06,35,19.70
2017,09,04,06,36,19.70
2017,09,04,06,37,19.70
2017,09,04,06,38,19.60
2017,09,04,06,39,19.60
2017,09,04,06,40,19.60
2017,09,04,06,41,19.60
2017,09,04,06,42,19.60
2017,09,04,06,43,19.60
2017,09,04,06,44,19.60
2017,09,04,06,45,19.60
2017,09,04,06,46,19.50
2017,09,04,06,47,19.50
2017,09,04,06,48,19.50
2017,09,04,06,49,19.50
2017,09,04,06,50,19.50
2017,09,04,06,51,19.50
2017,09,04,06,52,19.50
2017,09,04,06,53,19.50
2017,09,04,06,54,19.50
2017,09,04,06,55,19.50
2017,09,04,06,56,19.50
2017,09,04,06,57,19.50
2017,09,04,06,58,19.60
2017,09,04,06,59,19.60
2017,09,04,07,00,19.60
2017,09,04,07,01,19.60
2017,09,04,07,02,19.60
2017,09,04,07,03,19.60
2017,09,04,07,04,19.60
2017,09,04,07,05,19.60
2017,09,04,07,06,19.60
2017,09,04,07,07,19.60
2017,09,04,07,08,19.60
2017,09,04,07,09,19.60
2017,09,04,07,10,19.50
2017,09,04,07,11,19.50
2017,09,04,07,12,19.40
2017,09,04,07,13,19.40
2017,09,04,07,14,19.40
2017,09,04,07,15,19.30
2017,09,04,07,16,19.30
2017,09,04,07,17,19.20
2017,09,04,07,18,19.20
2017,09,04,07,19,19.20
2017,09,04,07,20,19.20
2017,09,04,07,21,19.20
2017,09,04,07,22,19.30
2017,09,04,07,23,19.30
2017,09,04,07,24,19.30
2017,09,04,07,25,19.30
2017,09,04,07,26,19.30
2017,09,04,07,27,19.30
2017,09,04,07,28,19.40
2017,09,04,07,29,19.40
2017,09,04,07,30,19.40
2017,09,04,07,31,19.50
2017,09,04,07,32,19.60
2017,09,04,07,33,19.60
2017,09,04,07,34,19.60
2017,09,04,07,35,19.70
2017,09,04,07,36,19.70
2017,09,04,07,37,19.80
2017,09,04,07,38,19.80
2017,09,04,07,39,19.80
2017,09,04,07,40,19.80
2017,09,04,07,41,19.90
2017,09,04,07,42,19.90
2017,09,04,07,43,19.90
2017,09,04,07,44,20.00
2017,09,04,07,45,20.00
2017,09,04,07,46,20.10
2017,09,04,07,47,20.10
2017,09,04,07,48,20.10
2017,09,04,07,49,20.20
2017,09,04,07,50,20.20
2017,09,04,07,51,20.30
2017,09,04,07,52,20.30
2017,09,04,07,53,20.40
2017,09,04,07,54,20.40
2017,09,04,07,55,20.40
2017,09,04,07,56,20.50
2017,09,04,07,57,20.50
2017,09,04,07,58,20.50
2017,09,04,07,59,20.60
2017,09,04,08,00,20.70
2017,09,04,08,01,20.70
2017,09,04,08,02,20.70
2017,09,04,08,03,20.80
2017,09,04,08,04,20.80
2017,09,04,08,05,20.80
2017,09,04,08,06,20.90
2017,09,04,08,07,20.90
2017,09,04,08,08,20.90
2017,09,04,08,09,20.90
2017,09,04,08,10,21.00
2017,09,04,08,11,21.00
2017,09,04,08,12,21.10
2017,09,04,08,13,21.10
2017,09,04,08,14,21.20
2017,09,04,08,15,21.20
2017,09,04,08,16,21.30
2017,09,04,08,17,21.30
2017,09,04,08,18,21.30
2017,09,04,08,19,21.40
2017,09,04,08,20,21.40
2017,09,04,08,21,21.40
2017,09,04,08,22,21.50
2017,09,04,08,23,21.50
2017,09,04,08,24,21.60
2017,09,04,08,25,21.60
2017,09,04,08,26,21.70
2017,09,04,08,27,21.70
2017,09,04,08,28,21.70
2017,09,04,08,29,21.80
2017,09,04,08,30,21.80
2017,09,04,08,31,21.90
2017,09,04,08,32,21.90
2017,09,04,08,33,21.90
2017,09,04,08,34,22.00
2017,09,04,08,35,22.00
2017,09,04,08,36,22.10
2017,09,04,08,37,22.10
2017,09,04,08,38,22.10
2017,09,04,08,39,22.10
2017,09,04,08,40,22.10
2017,09,04,08,41,22.10
2017,09,04,08,42,22.10
2017,09,04,08,43,22.20
2017,09,04,08,44,22.20
2017,09,04,08,45,22.20
2017,09,04,08,46,22.20
2017,09,04,08,47,22.30
2017,09,04,08,48,22.30
2017,09,04,08,49,22.30
2017,09,04,08,50,22.30
2017,09,04,08,51,22.30
2017,09,04,08,52,22.40
2017,09,04,08,53,22.40
2017,09,04,08,54,22.50
2017,09,04,08,55,22.50
2017,09,04,08,56,22.60
2017,09,04,08,57,22.60
2017,09,04,08,58,22.60
2017,09,04,08,59,22.70
2017,09,04,09,00,22.70
2017,09,04,09,01,22.70
2017,09,04,09,02,22.80
2017,09,04,09,03,22.80
2017,09,04,09,04,22.90
2017,09,04,09,05,22.90
2017,09,04,09,06,23.00
2017,09,04,09,07,23.00
2017,09,04,09,08,23.10
2017,09,04,09,09,23.20
2017,09,04,09,10,23.20
2017,09,04,09,11,23.20
2017,09,04,09,12,23.30
2017,09,04,09,13,23.30
2017,09,04,09,14,23.40
2017,09,04,09,15,23.40
2017,09,04,09,16,23.40
2017,09,04,09,17,23.50
2017,09,04,09,18,23.50
2017,09,04,09,19,23.60
2017,09,04,09,20,23.60
2017,09,04,09,21,23.70
2017,09,04,09,22,23.70
2017,09,04,09,23,23.80
2017,09,04,09,24,23.80
2017,09,04,09,25,23.80
2017,09,04,09,26,23.80
2017,09,04,09,27,23.90
2017,09,04,09,28,23.90
2017,09,04,09,29,24.00
2017,09,04,09,30,24.10
2017,09,04,09,31,24.10
2017,09,04,09,32,24.10
2017,09,04,09,33,24.20
2017,09,04,09,34,24.20
2017,09,04,09,35,24.30
2017,09,04,09,36,24.30
2017,09,04,09,37,24.40
2017,09,04,09,38,24.40
2017,09,04,09,39,24.50
2017,09,04,09,40,24.50
2017,09,04,09,41,24.60
2017,09,04,09,42,24.60
2017,09,04,09,43,24.60
2017,09,04,09,44,24.60
2017,09,04,09,45,24.70
2017,09,04,09,46,24.70
2017,09,04,09,47,24.80
2017,09,04,09,48,24.80
2017,09,04,09,49,24.90
2017,09,04,09,50,24.90
2017,09,04,09,51,25.00
2017,09,04,09,52,25.00
2017,09,04,09,53,25.10
2017,09,04,09,54,25.10
2017,09,04,09,55,25.20
2017,09,04,09,56,25.30
2017,09,04,09,57,25.30
2017,09,04,09,58,25.40
2017,09,04,09,59,25.40
2017,09,04,10,00,25.40
2017,09,04,10,01,25.50
2017,09,04,10,02,25.50
2017,09,04,10,03,25.60
2017,09,04,10,04,25.60
2017,09,04,10,05,25.60
2017,09,04,10,06,25.70
2017,09,04,10,07,25.70
2017,09,04,10,08,25.80
2017,09,04,10,09,25.80
2017,09,04,10,10,25.80
2017,09,04,10,11,25.90
2017,09,04,10,12,25.90
2017,09,04,10,13,26.00
2017,09,04,10,14,26.10
2017,09,04,10,15,26.10
2017,09,04,10,16,26.20
2017,09,04,10,17,26.30
2017,09,04,10,18,26.40
2017,09,04,10,19,26.50
2017,09,04,10,20,26.50
2017,09,04,10,21,26.50
2017,09,04,10,22,26.50
2017,09,04,10,23,26.50
2017,09,04,10,24,26.40
2017,09,04,10,25,26.40
2017,09,04,10,26,26.30
2017,09,04,10,27,26.30
2017,09,04,10,28,26.30
2017,09,04,10,29,26.30
2017,09,04,10,30,26.20
2017,09,04,10,31,26.30
2017,09,04,10,32,26.30
2017,09,04,10,33,26.30
2017,09,04,10,34,26.30
2017,09,04,10,35,26.30
2017,09,04,10,36,26.30
2017,09,04,10,37,26.30
2017,09,04,10,38,26.30
2017,09,04,10,39,26.40
2017,09,04,10,40,26.40
2017,09,04,10,41,26.40
2017,09,04,10,42,26.50
2017,09,04,10,43,26.50
2017,09,04,10,44,26.60
2017,09,04,10,45,26.60
2017,09,04,10,46,26.60
2017,09,04,10,47,26.60
2017,09,04,10,48,26.60
2017,09,04,10,49,26.70
2017,09,04,10,50,26.70
2017,09,04,10,51,26.80
2017,09,04,10,52,26.80
2017,09,04,10,53,26.90
2017,09,04,10,54,26.90
2017,09,04,10,55,27.00
2017,09,04,10,56,27.00
2017,09,04,10,57,27.10
2017,09,04,10,58,27.10
2017,09,04,10,59,27.00
2017,09,04,11,00,27.00
2017,09,04,11,01,27.00
2017,09,04,11,02,27.00
2017,09,04,11,03,27.10
2017,09,04,11,04,27.10
2017,09,04,11,05,27.20
2017,09,04,11,06,27.30
2017,09,04,11,07,27.30
2017,09,04,11,08,27.40
2017,09,04,11,09,27.40
2017,09,04,11,10,27.40
2017,09,04,11,11,27.40
2017,09,04,11,12,27.40
2017,09,04,11,13,27.50
2017,09,04,11,14,27.50
2017,09,04,11,15,27.60
2017,09,04,11,16,27.70
2017,09,04,11,17,27.70
2017,09,04,11,18,27.70
2017,09,04,11,19,27.70
2017,09,04,11,20,27.70
2017,09,04,11,21,27.70
2017,09,04,11,22,27.70
2017,09,04,11,23,27.70
2017,09,04,11,24,27.70
2017,09,04,11,25,27.70
2017,09,04,11,26,27.70
2017,09,04,11,27,27.80
2017,09,04,11,28,27.80
2017,09,04,11,29,27.90
2017,09,04,11,30,27.90
2017,09,04,11,31,28.00
2017,09,04,11,32,28.00
2017,09,04,11,33,28.00
2017,09,04,11,34,28.00
2017,09,04,11,35,28.10
2017,09,04,11,36,28.10
2017,09,04,11,37,28.10
2017,09,04,11,38,28.10
2017,09,04,11,39,28.00
2017,09,04,11,40,27.90
2017,09,04,11,41,27.90
2017,09,04,11,42,27.90
2017,09,04,11,43,28.00
2017,09,04,11,44,28.10
2017,09,04,11,45,28.10
2017,09,04,11,46,28.20
2017,09,04,11,47,28.30
2017,09,04,11,48,28.30
2017,09,04,11,49,28.40
2017,09,04,11,50,28.50
2017,09,04,11,51,28.50
2017,09,04,11,52,28.60
2017,09,04,11,53,28.70
2017,09,04,11,54,28.80
2017,09,04,11,55,28.90
2017,09,04,11,56,28.90
2017,09,04,11,57,28.90
2017,09,04,11,58,29.00
2017,09,04,11,59,29.00
2017,09,04,12,00,29.00
2017,09,04,12,01,28.90
2017,09,04,12,02,28.90
2017,09,04,12,03,28.80
2017,09,04,12,04,28.80
2017,09,04,12,05,28.70
2017,09,04,12,06,28.60
2017,09,04,12,07,28.60
2017,09,04,12,08,28.60
2017,09,04,12,09,28.60
2017,09,04,12,10,28.60
2017,09,04,12,11,28.70
2017,09,04,12,12,28.70
2017,09,04,12,13,28.70
2017,09,04,12,14,28.80
2017,09,04,12,15,28.80
2017,09,04,12,16,28.70
2017,09,04,12,17,28.70
2017,09,04,12,18,28.70
2017,09,04,12,19,28.70
2017,09,04,12,20,28.70
2017,09,04,12,21,28.70
2017,09,04,12,22,28.80
2017,09,04,12,23,28.90
2017,09,04,12,24,29.00
2017,09,04,12,25,29.10
2017,09,04,12,26,29.10
2017,09,04,12,27,29.10
2017,09,04,12,28,29.10
2017,09,04,12,29,29.10
2017,09,04,12,30,29.00
2017,09,04,12,31,29.00
2017,09,04,12,32,29.10
2017,09,04,12,33,29.10
2017,09,04,12,34,29.10
2017,09,04,12,35,29.10
2017,09,04,12,36,29.00
2017,09,04,12,37,29.10
2017,09,04,12,38,29.10
2017,09,04,12,39,29.10
2017,09,04,12,40,29.20
2017,09,04,12,41,29.20
2017,09,04,12,42,29.20
2017,09,04,12,43,29.30
2017,09,04,12,44,29.30
2017,09,04,12,45,29.40
2017,09,04,12,46,29.40
2017,09,04,12,47,29.40
2017,09,04,12,48,29.40
2017,09,04,12,49,29.50
2017,09,04,12,50,29.50
2017,09,04,12,51,29.50
2017,09,04,12,52,29.50
2017,09,04,12,53,29.50
2017,09,04,12,54,29.40
2017,09,04,12,55,29.40
2017,09,04,12,56,29.40
2017,09,04,12,57,29.30
2017,09,04,12,58,29.30
2017,09,04,12,59,29.30
2017,09,04,13,00,29.30
2017,09,04,13,01,29.20
2017,09,04,13,02,29.20
2017,09,04,13,03,29.10
2017,09,04,13,04,29.10
2017,09,04,13,05,29.10
2017,09,04,13,06,29.10
2017,09,04,13,07,29.10
2017,09,04,13,08,29.10
2017,09,04,13,09,29.10
2017,09,04,13,10,29.10
2017,09,04,13,11,29.20
2017,09,04,13,12,29.20
2017,09,04,13,13,29.20
2017,09,04,13,14,29.30
2017,09,04,13,15,29.30
2017,09,04,13,16,29.40
2017,09,04,13,17,29.40
2017,09,04,13,18,29.40
2017,09,04,13,19,29.50
2017,09,04,13,20,29.50
2017,09,04,13,21,29.50
2017,09,04,13,22,29.60
2017,09,04,13,23,29.60
2017,09,04,13,24,29.70
2017,09,04,13,25,29.70
2017,09,04,13,26,29.80
2017,09,04,13,27,29.90
2017,09,04,13,28,29.90
2017,09,04,13,29,30.00
2017,09,04,13,30,30.00
2017,09,04,13,31,30.10
2017,09,04,13,32,30.10
2017,09,04,13,33,30.10
2017,09,04,13,34,30.10
2017,09,04,13,35,30.20
2017,09,04,13,36,30.20
2017,09,04,13,37,30.20
2017,09,04,13,38,30.20
2017,09,04,13,39,30.10
2017,09,04,13,40,30.10
2017,09,04,13,41,30.00
2017,09,04,13,42,30.00
2017,09,04,13,43,30.00
2017,09,04,13,44,29.90
2017,09,04,13,45,29.90
2017,09,04,13,46,29.90
2017,09,04,13,47,29.80
2017,09,04,13,48,29.80
2017,09,04,13,49,29.70
2017,09,04,13,50,29.50
2017,09,04,13,51,29.50
2017,09,04,13,52,29.40
2017,09,04,13,53,29.30
2017,09,04,13,54,29.30
2017,09,04,13,55,29.20
2017,09,04,13,56,29.10
2017,09,04,13,57,29.10
2017,09,04,13,58,29.00
2017,09,04,13,59,29.00
2017,09,04,14,00,28.90
2017,09,04,14,01,28.90
2017,09,04,14,02,28.80
2017,09,04,14,03,28.80
2017,09,04,14,04,28.80
2017,09,04,14,05,28.90
2017,09,04,14,06,28.90
2017,09,04,14,07,28.80
2017,09,04,14,08,28.80
2017,09,04,14,09,28.80
2017,09,04,14,10,28.80
2017,09,04,14,11,28.80
2017,09,04,14,12,28.80
2017,09,04,14,13,28.90
2017,09,04,14,14,29.00
2017,09,04,14,15,29.00
2017,09,04,14,16,29.10
2017,09,04,14,17,29.20
2017,09,04,14,18,29.30
2017,09,04,14,19,29.30
2017,09,04,14,20,29.40
2017,09,04,14,21,29.50
2017,09,04,14,22,29.60
2017,09,04,14,23,29.70
2017,09,04,14,24,29.70
2017,09,04,14,25,29.80
2017,09,04,14,26,29.90
2017,09,04,14,27,29.90
2017,09,04,14,28,30.00
2017,09,04,14,29,30.00
2017,09,04,14,30,30.10
2017,09,04,14,31,30.10
2017,09,04,14,32,30.10
2017,09,04,14,33,30.10
2017,09,04,14,34,30.10
2017,09,04,14,35,30.00
2017,09,04,14,36,30.00
2017,09,04,14,37,30.00
2017,09,04,14,38,30.10
2017,09,04,14,39,30.10
2017,09,04,14,40,30.10
2017,09,04,14,41,30.10
2017,09,04,14,42,30.00
2017,09,04,14,43,30.00
2017,09,04,14,44,30.00
2017,09,04,14,45,30.00
2017,09,04,14,46,30.00
2017,09,04,14,47,30.00
2017,09,04,14,48,30.10
2017,09,04,14,49,30.10
2017,09,04,14,50,30.20
2017,09,04,14,51,30.20
2017,09,04,14,52,30.30
2017,09,04,14,53,30.40
2017,09,04,14,54,30.40
2017,09,04,14,55,30.40
2017,09,04,14,56,30.40
2017,09,04,14,57,30.30
2017,09,04,14,58,30.20
2017,09,04,14,59,30.10
2017,09,04,15,00,30.10
2017,09,04,15,01,30.10
2017,09,04,15,02,30.10
2017,09,04,15,03,30.10
2017,09,04,15,04,30.10
2017,09,04,15,05,30.10
2017,09,04,15,06,30.20
2017,09,04,15,07,30.30
2017,09,04,15,08,30.40
2017,09,04,15,09,30.50
2017,09,04,15,10,30.60
2017,09,04,15,11,30.70
2017,09,04,15,12,30.80
2017,09,04,15,13,30.80
2017,09,04,15,14,30.80
2017,09,04,15,15,30.70
2017,09,04,15,16,30.70
2017,09,04,15,17,30.70
2017,09,04,15,18,30.60
2017,09,04,15,19,30.60
2017,09,04,15,20,30.60
2017,09,04,15,21,30.60
2017,09,04,15,22,30.60
2017,09,04,15,23,30.60
2017,09,04,15,24,30.60
2017,09,04,15,25,30.70
2017,09,04,15,26,30.80
2017,09,04,15,27,30.90
2017,09,04,15,28,31.00
2017,09,04,15,29,31.10
2017,09,04,15,30,31.20
2017,09,04,15,31,31.20
2017,09,04,15,32,31.30
2017,09,04,15,33,31.30
2017,09,04,15,34,31.30
2017,09,04,15,35,31.40
2017,09,04,15,36,31.40
2017,09,04,15,37,31.40
2017,09,04,15,38,31.40
2017,09,04,15,39,31.40
2017,09,04,15,40,31.40
2017,09,04,15,41,31.40
2017,09,04,15,42,31.40
2017,09,04,15,43,31.30
2017,09,04,15,44,31.30
2017,09,04,15,45,31.20
2017,09,04,15,46,31.20
2017,09,04,15,47,31.30
2017,09,04,15,48,31.30
2017,09,04,15,49,31.30
2017,09,04,15,50,31.30
2017,09,04,15,51,31.30
2017,09,04,15,52,31.40
2017,09,04,15,53,31.40
2017,09,04,15,54,31.40
2017,09,04,15,55,31.50
2017,09,04,15,56,31.50
2017,09,04,15,57,31.60
2017,09,04,15,58,31.60
2017,09,04,15,59,31.50
2017,09,04,16,00,31.50
2017,09,04,16,01,31.50
2017,09,04,16,02,31.50
2017,09,04,16,03,31.50
2017,09,04,16,04,31.60
2017,09,04,16,05,31.60
2017,09,04,16,06,31.60
2017,09,04,16,07,31.60
2017,09,04,16,08,31.70
2017,09,04,16,09,31.70
2017,09,04,16,10,31.80
2017,09,04,16,11,31.90
2017,09,04,16,12,31.90
2017,09,04,16,13,31.90
2017,09,04,16,14,31.90
2017,09,04,16,15,32.00
2017,09,04,16,16,32.00
2017,09,04,16,17,32.00
2017,09,04,16,18,32.10
2017,09,04,16,19,32.10
2017,09,04,16,20,32.10
2017,09,04,16,21,32.10
2017,09,04,16,22,32.10
2017,09,04,16,23,32.10
2017,09,04,16,24,32.20
2017,09,04,16,25,32.20
2017,09,04,16,26,32.30
2017,09,04,16,27,32.30
2017,09,04,16,28,32.40
2017,09,04,16,29,32.40
2017,09,04,16,30,32.50
2017,09,04,16,31,32.60
2017,09,04,16,32,32.50
2017,09,04,16,33,32.50
2017,09,04,16,34,32.50
2017,09,04,16,35,32.50
2017,09,04,16,36,32.40
2017,09,04,16,37,32.40
2017,09,04,16,38,32.40
2017,09,04,16,39,32.40
2017,09,04,16,40,32.40
2017,09,04,16,41,32.40
2017,09,04,16,42,32.50
2017,09,04,16,43,32.50
2017,09,04,16,44,32.50
2017,09,04,16,45,32.50
2017,09,04,16,46,32.50
2017,09,04,16,47,32.60
2017,09,04,16,48,32.60
2017,09,04,16,49,32.60
2017,09,04,16,50,32.60
2017,09,04,16,51,32.60
2017,09,04,16,52,32.60
2017,09,04,16,53,32.60
2017,09,04,16,54,32.60
2017,09,04,16,55,32.60
2017,09,04,16,56,32.70
2017,09,04,16,57,32.70
2017,09,04,16,58,32.70
2017,09,04,16,59,32.70
2017,09,04,17,00,32.70
2017,09,04,17,01,32.70
2017,09,04,17,02,32.70
2017,09,04,17,03,32.70
2017,09,04,17,04,32.70
2017,09,04,17,05,32.70
2017,09,04,17,06,32.70
2017,09,04,17,07,32.70
2017,09,04,17,08,32.80
2017,09,04,17,09,32.80
2017,09,04,17,10,32.80
2017,09,04,17,11,32.80
2017,09,04,17,12,32.80
2017,09,04,17,13,32.80
2017,09,04,17,14,32.80
2017,09,04,17,15,32.90
2017,09,04,17,16,32.90
2017,09,04,17,17,32.90
2017,09,04,17,18,32.90
2017,09,04,17,19,32.90